Notices

What's New in latest Release from April 7th, 2021:

- Updated Glossary, including Speed of Maximum Gust, and Total Hourly Precipitation

- Updated national and regional climate services offices contacts and prices information

- Addition of station inventory lists for 1981-2010, 1971-2000, and 1961-1990 Normals.

If you haven't already, please take our survey and provide feedback about our website: https://eccc.sondage-survey.ca/f/LanguageSelection.aspx?s=442ca660-fcf1-47c0-95a9-59707d6fd709

Hourly Data Report for January 22, 2021

OTTAWA INTL A
ONTARIO
Current Station Operator: NAVCAN

45°19'00.000" N
75°40'00.000" W
114.90 m
6106001
71628
YOW

Download Data

Hourly Data (January 2021)
Hourly Data Report for January 22, 2021
TIME
LST
Temp Definition
°C
Dew Point Definition
°C
Rel Hum Definition
%
Precip. Amount Definition
mm

Wind Dir Definition
10's deg

Wind Spd Definition
km/h
Visibility Definition
km
Stn Press Definition
kPa
Hmdx Definition


Wind Chill Definition


Weather Definition


00:00 -4.9 -5.9 93   27 6 16.1 98.27   -8 Snow
01:00 -3.9 -5.0 92   25 7 24.1 98.30   -7 Cloudy
02:00 -2.8 -4.0 91   25 8 24.1 98.35   -6 LegendNANA
03:00 -2.7 -4.0 91   27 10 24.1 98.38   -7 LegendNANA
04:00 -2.1 -4.5 84   29 16 24.1 98.44   -7 Mostly Cloudy
05:00 -3.3 -6.2 80   30 19 24.1 98.54   -9 LegendNANA
06:00 -4.7 -7.7 80   29 13 24.1 98.62   -10 LegendNANA
07:00 -5.1 -8.2 79   29 14 24.1 98.71   -10 Cloudy
08:00 -5.7 -9.9 72   28 19 24.1 98.79   -12 LegendNANA
09:00 -6.2 -9.2 79   29 23 24.1 98.94   -14 LegendNANA
10:00 -6.8 -9.9 79   29 23 24.1 99.07   -14 Mostly Cloudy
11:00 -6.9 -10.3 77   29 22 24.1 99.13   -14 LegendNANA
12:00 -6.9 -10.8 74   27 21 24.1 99.12   -14 LegendNANA
13:00 -6.6 -11.6 68   27 17 24.1 99.16   -13 Mostly Cloudy
14:00 -7.1 -11.3 72   25 22 24.1 99.22   -15 LegendNANA
15:00 -7.2 -11.6 71   26 21 24.1 99.30   -15 LegendNANA
16:00 -7.4 -11.8 71   26 18 24.1 99.41   -14 Cloudy
17:00 -7.7 -12.0 71   28 28 24.1 99.54   -16 LegendNANA
18:00 -8.1 -12.1 73   29 22 16.1 99.65   -16 Snow
19:00 -8.3 -12.2 74   29 21 16.1 99.69   -16 Snow
20:00 -8.9 -12.5 75   29 22 16.1 99.75   -17 Snow
21:00 -9.3 -12.2 80   30 21 16.1 99.80   -17 Snow
22:00 -9.8 -12.6 81   30 19 16.1 99.84   -17 Snow
23:00 -10.6 -13.1 82   29 14 24.1 99.93   -17 Snow

Notes on Data Quality.

Legend

  • E = Estimated
  • M = Missing
  • NA = Not Available*
  • [empty] = Indicates an unobserved value
Date modified: